Weather in Poselok Kurort Ozero

Russia / Kurgan Oblast     55°08′06″N   62°32′04″E
temp.,
°C
wind,
m/s
gust,
m/s
humid.,
%
clouds,
%
prec.,
mm/h
press.,
hPa
HPBL,
m
6 may, thu
thu623:00+11wnw81463100 0.0 1002892
02:00+9wnw814610 0.0 10041089
05:00+7w713640 0.0 1007809
08:00+8wnw812595 0.0 10081031
11:00+12wnw912437 0.0 10101870
14:00+14wnw10133673 0.0 10112191
17:00+13wnw9113761 0.0 10132132
20:00+10wnw594558 0.0 1015389
7 may, fri
fri723:00+8w411583 0.0 1017257
02:00+6w410660 0.0 1019234
05:00+5wnw37825 0.0 1021137
08:00+10wnw34627 0.0 1022355
11:00+15w34415 0.0 10221214
14:00+18wsw34325 0.0 10211685
17:00+19sw33295 0.0 10201714
20:00+15ssw33405 0.0 102022
8 may, sat
sat823:00+12ssw334483 0.0 102124
02:00+11s2245100 0.0 102015
05:00+10s2244100 0.0 102011
08:00+14s2241100 0.0 1020169
11:00+18se2228100 0.0 10191819
14:00+20se1224100 0.0 10182362
17:00+20ne1123100 0.0 10172672
20:00+17nne2335100 0.0 101737
9 may, sun
sun923:00+15ne2236100 0.0 101714
02:00+14ne2238100 0.0 101612
05:00+13n3542100 0.0 101791
08:00+15nne3644100 0.0 1017255
11:00+19ne5733100 0.0 10161756
14:00+20ene6729100 0.0 10162345
17:00+17ene5848100 0.0 1017895
20:00+16ne4105698 0.0 1017340
10 may, mon
mon1023:00+15nnw51154100 0.0 1018310
02:00+13nne5116784 0.3 1018234
05:00+10n357960 0.3 101979
08:00+15nne35615 0.0 1021303
11:00+20nne34445 0.0 10221284
14:00+22nne3433100 0.0 10212713
17:00+22wsw113477 0.0 10211202
20:00+18w334898 0.0 102241